DL2GPS-3 Weather Reports


time (UTC)temp
C
wind
direction
speed
KPH
gust
KPH
rain 1hr
cm
rain 24hr
cm
rain mn
cm
humidity
%
barometer
mb
20260507143740 11 24.1 25.7 0.00 0.00 0.00 10 1016.8
20260507142734 12 24.1 25.7 0.00 0.00 0.00 10 1016.8
20260507141729 12 24.1 25.7 0.00 0.00 0.00 95 1016.7
20260507140724 12 24.1 27.4 0.00 0.00 0.00 99 1016.6
20260507135719 12 25.7 27.4 0.00 0.00 0.00 10 1016.7
20260507134713 11 24.1 25.7 0.00 0.00 0.00 10 1016.8
20260507133708 10 24.1 25.7 0.00 0.00 0.00 10 1016.8
20260507132703 10 24.1 25.7 0.00 0.00 0.00 10 1016.9
20260507131657 10 24.1 25.7 0.00 0.00 0.00 10 1016.9
20260507130653 9 24.1 25.7 0.00 0.00 0.00 10 1016.9
20260507125648 9 24.1 25.7 0.00 0.00 0.00 10 1017.0
20260507124643 9 24.1 25.7 0.00 0.00 0.00 10 1017.0
20260507123637 10 24.1 27.4 0.00 0.00 0.00 10 1016.9
20260507122633 10 24.1 25.7 0.00 0.00 0.00 10 1016.7
20260507121628 11 24.1 25.7 0.00 0.00 0.00 10 1016.5
20260507120623 11 24.1 25.7 0.00 0.00 0.00 10 1016.5
20260507115617 11 24.1 25.7 0.00 0.00 0.00 10 1016.4
20260507114613 11 24.1 25.7 0.00 0.00 0.00 10 1016.4
20260507113608 11 25.7 25.7 0.00 0.00 0.00 10 1016.4
20260507112603 10 24.1 25.7 0.00 0.00 0.00 10 1016.5
20260507111557 10 24.1 25.7 0.00 0.00 0.00 10 1016.5
20260507110552 9 24.1 25.7 0.00 0.00 0.00 10 1016.5
20260507105547 9 24.1 27.4 0.00 0.00 0.00 10 1016.5
20260507104542 10 24.1 27.4 0.00 0.00 0.00 10 1016.5
20260507103537 9 25.7 24.1 0.00 0.00 0.00 10 1016.5
20260507102532 9 24.1 25.7 0.00 0.00 0.00 10 1016.5
20260507101528 8 24.1 27.4 0.00 0.00 0.00 10 1016.5
20260507100523 7 24.1 27.4 0.00 0.00 0.00 10 1016.4
20260507095517 7 24.1 27.4 0.00 0.00 0.00 10 1016.4
20260507094512 7 24.1 27.4 0.00 0.00 0.00 10 1016.3
20260507093507 7 24.1 25.7 0.00 0.00 0.00 10 1016.2
20260507092502 7 24.1 27.4 0.00 0.00 0.00 10 1016.0
20260507091457 7 24.1 25.7 0.00 0.00 0.00 10 1015.9
20260507090452 7 24.1 25.7 0.00 0.00 0.00 10 1015.8
20260507085448 8 24.1 25.7 0.00 0.00 0.00 10 1015.7
20260507084443 7 24.1 24.1 0.00 0.00 0.00 10 1015.6
20260507083438 7 24.1 27.4 0.00 0.00 0.00 10 1015.5
20260507082433 7 24.1 25.7 0.00 0.00 0.00 10 1015.5
20260507081428 7 24.1 27.4 0.00 0.00 0.00 10 1015.3
20260507080423 7 24.1 25.7 0.00 0.00 0.00 10 1015.3
20260507075417 8 24.1 25.7 0.00 0.00 0.00 10 1015.3
20260507074413 7 24.1 27.4 0.00 0.00 0.00 10 1015.2
20260507073408 7 24.1 25.7 0.00 0.00 0.00 10 1015.1
20260507072403 7 24.1 25.7 0.00 0.00 0.00 10 1015.0
20260507071357 6 24.1 25.7 0.00 0.00 0.00 10 1014.9
20260507070353 6 24.1 25.7 0.00 0.00 0.00 10 1014.8
20260507065348 6 24.1 25.7 0.00 0.00 0.00 10 1014.7
20260507064343 6 24.1 25.7 0.00 0.00 0.00 10 1014.7
20260507063337 6 24.1 25.7 0.00 0.00 0.00 10 1014.6
20260507062333 6 24.1 25.7 0.00 0.00 0.00 10 1014.5
20260507061328 6 24.1 25.7 0.00 0.00 0.00 10 1014.4
20260507060323 6 24.1 27.4 0.00 0.00 0.00 10 1014.4
20260507055317 6 24.1 25.7 0.00 0.00 0.00 10 1014.3
20260507054313 6 24.1 25.7 0.00 0.00 0.00 10 1014.2
20260507053308 6 24.1 25.7 0.00 0.00 0.00 10 1014.0
20260507052306 6 25.7 25.7 0.00 0.00 0.00 10 1014.0
20260507051257 6 24.1 25.7 0.00 0.00 0.00 10 1013.8
20260507050252 6 24.1 25.7 0.00 0.00 0.00 10 1013.7
20260507045247 6 24.1 27.4 0.00 0.00 0.00 10 1013.6
20260507044242 6 24.1 25.7 0.00 0.00 0.00 10 1013.5
20260507043236 6 24.1 25.7 0.00 0.00 0.00 10 1013.4
20260507042231 6 24.1 25.7 0.00 0.00 0.00 10 1013.3
20260507041226 6 25.7 25.7 0.00 0.00 0.00 10 1013.2
20260507040220 6 24.1 25.7 0.00 0.00 0.00 10 1013.0
20260507035215 6 24.1 25.7 0.00 0.00 0.00 10 1013.0
20260507034210 5 25.7 25.7 0.00 0.00 0.00 10 1012.9
20260507033205 5 24.1 25.7 0.00 0.00 0.00 10 1012.8
20260507032200 5 24.1 27.4 0.00 0.00 0.00 10 1012.7
20260507031155 5 24.1 25.7 0.00 0.00 0.00 10 1012.7
20260507030150 5 25.7 25.7 0.00 0.00 0.00 10 1012.6
20260507025146 5 24.1 25.7 0.00 0.00 0.00 10 1012.5
20260507024142 5 24.1 25.7 0.00 0.00 0.00 10 1012.6
20260507023136 5 24.1 25.7 0.00 0.00 0.00 10 1012.5
20260507022131 5 24.1 25.7 0.00 0.00 0.00 10 1012.4
20260507021126 5 24.1 25.7 0.00 0.00 0.00 10 1012.3
20260507020121 5 24.1 27.4 0.00 0.00 0.00 10 1012.2
20260507015116 5 25.7 25.7 0.00 0.00 0.00 10 1012.3
20260507014111 5 24.1 25.7 0.00 0.00 0.00 10 1012.1
20260507013106 5 24.1 25.7 0.00 0.00 0.00 10 1012.0
20260507012101 5 24.1 25.7 0.00 0.00 0.00 10 1012.0
20260507011056 5 25.7 25.7 0.00 0.00 0.00 10 1012.0
20260507010050 5 25.7 27.4 0.00 0.00 0.00 10 1011.9
20260507005045 5 24.1 25.7 0.00 0.00 0.00 10 1011.9
20260507004040 5 24.1 25.7 0.00 0.00 0.00 10 1011.8
20260507003034 5 25.7 25.7 0.00 0.00 0.00 10 1011.9
20260507002028 5 24.1 24.1 0.00 0.00 0.00 10 1012.0
20260507001023 5 24.1 25.7 0.00 0.00 0.00 10 1011.9
20260507000018 5 24.1 25.7 0.00 0.00 0.00 10 1011.9
20260506235012 5 24.1 25.7 0.00 0.00 0.00 10 1011.9
20260506234007 5 24.1 25.7 0.00 0.00 0.00 10 1011.9
20260506233002 5 24.1 27.4 0.00 0.00 0.00 10 1012.0
20260506231957 5 24.1 25.7 0.00 0.00 0.00 10 1011.9
20260506230952 5 24.1 27.4 0.00 0.00 0.00 10 1011.9
20260506225948 5 24.1 24.1 0.00 0.00 0.00 10 1011.9
20260506224943 5 24.1 27.4 0.00 0.00 0.00 10 1011.9
20260506223939 5 24.1 29.0 0.00 0.00 0.00 10 1011.9
20260506222933 5 24.1 25.7 0.00 0.00 0.00 10 1011.9
20260506221928 5 24.1 25.7 0.00 0.00 0.00 10 1011.9
20260506220923 5 24.1 24.1 0.00 0.00 0.00 10 1011.8
20260506215918 5 25.7 27.4 0.00 0.00 0.00 10 1011.7
20260506214912 5 24.1 27.4 0.00 0.00 0.00 10 1011.6
20260506213907 5 24.1 24.1 0.00 0.00 0.00 10 1011.6
20260506212902 5 24.1 25.7 0.00 0.00 0.00 10 1011.5
20260506211857 5 24.1 27.4 0.00 0.00 0.00 10 1011.5
20260506210852 5 25.7 24.1 0.00 0.00 0.00 10 1011.4
20260506205847 5 25.7 25.7 0.00 0.00 0.00 10 1011.5
20260506204843 6 24.1 25.7 0.00 0.00 0.00 10 1011.5
20260506203838 6 24.1 27.4 0.00 0.00 0.00 10 1011.6
20260506202833 6 24.1 25.7 0.00 0.00 0.00 10 1011.5
20260506201828 6 25.7 25.7 0.00 0.00 0.00 10 1011.4
20260506200823 5 24.1 25.7 0.00 0.00 0.00 10 1011.5
20260506195819 5 25.7 25.7 0.00 0.00 0.00 10 1011.4
20260506194812 6 24.1 25.7 0.00 0.00 0.00 10 1011.3
20260506193807 6 24.1 25.7 0.00 0.00 0.00 10 1011.2
20260506192802 6 24.1 27.4 0.00 0.00 0.00 10 1011.1
20260506191758 6 24.1 25.7 0.00 0.00 0.00 10 1011.0
20260506190753 6 24.1 25.7 0.00 0.00 0.00 10 1010.9
20260506185749 6 24.1 25.7 0.00 0.00 0.00 10 1010.8
20260506184743 6 24.1 25.7 0.00 0.00 0.00 10 1010.8
20260506183737 6 24.1 27.4 0.00 0.00 0.00 10 1010.6
20260506182732 6 24.1 25.7 0.00 0.00 0.00 10 1010.5
20260506181727 6 24.1 25.7 0.00 0.00 0.00 10 1010.4
20260506180723 6 24.1 24.1 0.00 0.00 0.00 10 1010.3
20260506175717 6 24.1 25.7 0.00 0.00 0.00 10 1010.2
20260506174713 6 24.1 25.7 0.00 0.00 0.00 10 1010.1
20260506173709 7 24.1 25.7 0.00 0.00 0.00 10 1009.9
20260506172703 7 24.1 25.7 0.00 0.00 0.00 10 1009.7
20260506171659 7 25.7 27.4 0.00 0.00 0.00 10 1009.7
20260506170654 7 24.1 25.7 0.00 0.00 0.00 10 1009.6
20260506165648 7 24.1 27.4 0.00 0.00 0.00 10 1009.5
20260506164643 7 24.1 27.4 0.00 0.00 0.00 10 1009.5
20260506163639 7 24.1 25.7 0.00 0.00 0.00 10 1009.6
20260506162632 7 24.1 24.1 0.00 0.00 0.00 10 1009.6
20260506161627 7 25.7 25.7 0.00 0.00 0.00 10 1009.6
20260506160622 7 24.1 27.4 0.00 0.00 0.00 10 1009.6
20260506155617 7 24.1 25.7 0.00 0.00 0.00 10 1009.7
20260506154611 7 24.1 27.4 0.00 0.00 0.00 10 1009.5
20260506153607 7 24.1 27.4 0.00 0.00 0.00 10 1009.6
20260506152602 7 24.1 25.7 0.00 0.00 0.00 10 1009.5
20260506151557 7 24.1 27.4 0.00 0.00 0.00 10 1009.4
20260506150553 8 24.1 25.7 0.00 0.00 0.00 10 1009.3
20260506145548 8 24.1 25.7 0.00 0.00 0.00 10 1009.3
20260506144543 8 24.1 25.7 0.00 0.00 0.00 10 1009.1